KINEIS-3A

Last updated on Thu Sep 24 2026 00:03:12 GMT+0000 (Coordinated Universal Time)

1 61223U 24172D 26266.23626716 .00001246 00000+0 20482-3 0 9996 2 61223 98.0400 355.1640 0003056 122.3578 237.7925 14.72347726107201
UTC large
Height (km)
Speed (km/s)
/
Latitude / Longitude
Inclination (degrees)
Orbital Period (minutes)
Azimuth
Elevation
Range (km)
Doppler Factor

Next 0 passes for location: London (51.5072 / 0.1276)

No passes found over London.
KINEIS-3A